Location: Tel Aviv
(32.0670°N, 34.7670°E)
Time: 03:17:59
(UTC+03:00)

Tiros 1 - Pass Details

Date: 23 January 2022
Orbit: 629 x 663 km, 48.4° (Epoch: 26 May)

Event Time Altitude Azimuth Distance (km) Brightness Sun altitude
Rises 03:19:16 0° 318° (NW) 2,980 - -42.3°
Reaches altitude 10° 03:22:46 10° 344° (NNW) 2,060 - -41.5°
Maximum altitude 03:25:13 14° 15° (NNE) 1,805 - -41.0°
Drops below altitude 10° 03:27:40 10° 46° (NE) 2,047 - -40.5°
Exits shadow 03:28:30 - 55° (NE) 2,222 10.4 -40.3°
Sets 03:31:07 0° 73° (ENE) 2,946 11.4 -39.8°
